owner,sensor,date,latitude,longitude,air_temperature,qcFlag 
LUMCON,ioos:station:LUMCON:105:1,2009-03-02T21:00:00Z,29.1874,-90.6654,11.91,1111122 
LUMCON,ioos:station:LUMCON:105:1,2009-03-02T22:00:00Z,29.1874,-90.6654,12.43,1111122 
LUMCON,ioos:station:LUMCON:105:1,2009-03-02T23:00:00Z,29.1874,-90.6654,12.48,1111122 
LUMCON,ioos:station:LUMCON:105:1,2009-03-03T00:00:00Z,29.1874,-90.6654,8.3,1111122 
LUMCON,ioos:station:LUMCON:105:1,2009-03-03T01:00:00Z,29.1874,-90.6654,11.26,1111122 
LUMCON,ioos:station:LUMCON:105:1,2009-03-03T02:00:00Z,29.1874,-90.6654,10.86,1111122 
LUMCON,ioos:station:LUMCON:105:1,2009-03-03T03:00:00Z,29.1874,-90.6654,10.57,1111122 
LUMCON,ioos:station:LUMCON:105:1,2009-03-03T04:00:00Z,29.1874,-90.6654,10.14,1111122 
LUMCON,ioos:station:LUMCON:105:1,2009-03-03T05:00:00Z,29.1874,-90.6654,10.25,1111122 
LUMCON,ioos:station:LUMCON:105:1,2009-03-03T06:00:00Z,29.1874,-90.6654,9.76,1111122 
LUMCON,ioos:station:LUMCON:105:1,2009-03-03T07:00:00Z,29.1874,-90.6654,9.19,1111122 
LUMCON,ioos:station:LUMCON:105:1,2009-03-03T08:00:00Z,29.1874,-90.6654,9.5,1111122 
LUMCON,ioos:station:LUMCON:105:1,2009-03-03T09:00:00Z,29.1874,-90.6654,9.29,1111122 
LUMCON,ioos:station:LUMCON:105:1,2009-03-03T10:00:00Z,29.1874,-90.6654,8.28,1111122 
LUMCON,ioos:station:LUMCON:105:1,2009-03-03T11:00:00Z,29.1874,-90.6654,8.15,1111122 
LUMCON,ioos:station:LUMCON:105:1,2009-03-03T12:00:00Z,29.1874,-90.6654,7.91,1111122 
LUMCON,ioos:station:LUMCON:105:1,2009-03-03T13:00:00Z,29.1874,-90.6654,7.59,1111122 
LUMCON,ioos:station:LUMCON:105:1,2009-03-03T14:00:00Z,29.1874,-90.6654,7.36,1111122 
LUMCON,ioos:station:LUMCON:105:1,2009-03-03T15:00:00Z,29.1874,-90.6654,7.65,1111122 
LUMCON,ioos:station:LUMCON:105:1,2009-03-03T16:00:00Z,29.1874,-90.6654,8.56,1111122 
LUMCON,ioos:station:LUMCON:105:1,2009-03-03T17:00:00Z,29.1874,-90.6654,9.37,1111122 
LUMCON,ioos:station:LUMCON:105:1,2009-03-03T18:00:00Z,29.1874,-90.6654,10.14,1111122 
LUMCON,ioos:station:LUMCON:105:1,2009-03-03T19:00:00Z,29.1874,-90.6654,10.78,1111122 
LUMCON,ioos:station:LUMCON:105:1,2009-03-03T20:00:00Z,29.1874,-90.6654,11.16,1111122 
LUMCON,ioos:station:LUMCON:105:1,2009-03-03T21:00:00Z,29.1874,-90.6654,11.46,1111122 
LUMCON,ioos:station:LUMCON:105:1,2009-03-03T22:00:00Z,29.1874,-90.6654,11.79,1111122 
LUMCON,ioos:station:LUMCON:105:1,2009-03-03T23:00:00Z,29.1874,-90.6654,12.01,1111122 
LUMCON,ioos:station:LUMCON:105:1,2009-03-04T00:00:00Z,29.1874,-90.6654,9.8,1111122 
LUMCON,ioos:station:LUMCON:105:1,2009-03-04T01:00:00Z,29.1874,-90.6654,11.87,1111122 
LUMCON,ioos:station:LUMCON:105:1,2009-03-04T02:00:00Z,29.1874,-90.6654,11.7,1111122 
LUMCON,ioos:station:LUMCON:105:1,2009-03-04T03:00:00Z,29.1874,-90.6654,11.56,1111122 
LUMCON,ioos:station:LUMCON:105:1,2009-03-04T04:00:00Z,29.1874,-90.6654,11.72,1111122 
LUMCON,ioos:station:LUMCON:105:1,2009-03-04T05:00:00Z,29.1874,-90.6654,11.89,1111122 
LUMCON,ioos:station:LUMCON:105:1,2009-03-04T06:00:00Z,29.1874,-90.6654,12.0,1111122 
LUMCON,ioos:station:LUMCON:105:1,2009-03-04T07:00:00Z,29.1874,-90.6654,11.95,1111122 
LUMCON,ioos:station:LUMCON:105:1,2009-03-04T08:00:00Z,29.1874,-90.6654,12.08,1111122 
LUMCON,ioos:station:LUMCON:105:1,2009-03-04T09:00:00Z,29.1874,-90.6654,12.12,1111122 
LUMCON,ioos:station:LUMCON:105:1,2009-03-04T10:00:00Z,29.1874,-90.6654,11.99,1111122 
LUMCON,ioos:station:LUMCON:105:1,2009-03-04T11:00:00Z,29.1874,-90.6654,12.01,1111122 
LUMCON,ioos:station:LUMCON:105:1,2009-03-04T12:00:00Z,29.1874,-90.6654,11.69,1111122 
LUMCON,ioos:station:LUMCON:105:1,2009-03-04T13:00:00Z,29.1874,-90.6654,11.86,1111122 
LUMCON,ioos:station:LUMCON:105:1,2009-03-04T14:00:00Z,29.1874,-90.6654,12.53,1111122 
LUMCON,ioos:station:LUMCON:105:1,2009-03-04T15:00:00Z,29.1874,-90.6654,13.25,1111122 
LUMCON,ioos:station:LUMCON:105:1,2009-03-04T16:00:00Z,29.1874,-90.6654,14.19,1111122 
LUMCON,ioos:station:LUMCON:105:1,2009-03-04T17:00:00Z,29.1874,-90.6654,15.44,1111122 
LUMCON,ioos:station:LUMCON:105:1,2009-03-04T18:00:00Z,29.1874,-90.6654,16.02,1111122 
LUMCON,ioos:station:LUMCON:105:1,2009-03-04T19:00:00Z,29.1874,-90.6654,16.43,1111122 
LUMCON,ioos:station:LUMCON:105:1,2009-03-04T20:00:00Z,29.1874,-90.6654,16.71,1111122 
LUMCON,ioos:station:LUMCON:105:1,2009-03-04T21:00:00Z,29.1874,-90.6654,16.86,1111122 
LUMCON,ioos:station:LUMCON:105:1,2009-03-04T22:00:00Z,29.1874,-90.6654,16.97,1111122 
LUMCON,ioos:station:LUMCON:105:1,2009-03-04T23:00:00Z,29.1874,-90.6654,16.9,1111122 
LUMCON,ioos:station:LUMCON:105:1,2009-03-05T00:00:00Z,29.1874,-90.6654,13.61,1111122 
LUMCON,ioos:station:LUMCON:105:1,2009-03-05T01:00:00Z,29.1874,-90.6654,16.89,1111122 
LUMCON,ioos:station:LUMCON:105:1,2009-03-05T02:00:00Z,29.1874,-90.6654,17.0,1111122 
LUMCON,ioos:station:LUMCON:105:1,2009-03-05T03:00:00Z,29.1874,-90.6654,17.02,1111122 
LUMCON,ioos:station:LUMCON:105:1,2009-03-05T04:00:00Z,29.1874,-90.6654,17.11,1111122 
LUMCON,ioos:station:LUMCON:105:1,2009-03-05T05:00:00Z,29.1874,-90.6654,17.14,1111122 
LUMCON,ioos:station:LUMCON:105:1,2009-03-05T06:00:00Z,29.1874,-90.6654,17.16,1111122 
LUMCON,ioos:station:LUMCON:105:1,2009-03-05T07:00:00Z,29.1874,-90.6654,17.17,1111122 
LUMCON,ioos:station:LUMCON:105:1,2009-03-05T08:00:00Z,29.1874,-90.6654,17.06,1111122 
LUMCON,ioos:station:LUMCON:105:1,2009-03-05T09:00:00Z,29.1874,-90.6654,16.9,1111122 
LUMCON,ioos:station:LUMCON:105:1,2009-03-05T10:00:00Z,29.1874,-90.6654,16.7,1111122 
LUMCON,ioos:station:LUMCON:105:1,2009-03-05T11:00:00Z,29.1874,-90.6654,16.57,1111122 
LUMCON,ioos:station:LUMCON:105:1,2009-03-05T12:00:00Z,29.1874,-90.6654,16.63,1111122 
LUMCON,ioos:station:LUMCON:105:1,2009-03-05T13:00:00Z,29.1874,-90.6654,16.74,1111122 
LUMCON,ioos:station:LUMCON:105:1,2009-03-05T14:00:00Z,29.1874,-90.6654,17.08,1111122 
LUMCON,ioos:station:LUMCON:105:1,2009-03-05T15:00:00Z,29.1874,-90.6654,17.16,1111122 
LUMCON,ioos:station:LUMCON:105:1,2009-03-05T16:00:00Z,29.1874,-90.6654,17.25,1111122 
LUMCON,ioos:station:LUMCON:105:1,2009-03-05T17:00:00Z,29.1874,-90.6654,17.62,1111122 
LUMCON,ioos:station:LUMCON:105:1,2009-03-05T18:00:00Z,29.1874,-90.6654,17.61,1111122 
LUMCON,ioos:station:LUMCON:105:1,2009-03-05T19:00:00Z,29.1874,-90.6654,17.46,1111122 
LUMCON,ioos:station:LUMCON:105:1,2009-03-05T20:00:00Z,29.1874,-90.6654,17.85,1111122 
LUMCON,ioos:station:LUMCON:105:1,2009-03-05T21:00:00Z,29.1874,-90.6654,18.1,1111122 
LUMCON,ioos:station:LUMCON:105:1,2009-03-05T22:00:00Z,29.1874,-90.6654,18.15,1111122 
LUMCON,ioos:station:LUMCON:105:1,2009-03-05T23:00:00Z,29.1874,-90.6654,18.21,1111122 
LUMCON,ioos:station:LUMCON:105:1,2009-03-06T00:00:00Z,29.1874,-90.6654,17.28,1111122 
LUMCON,ioos:station:LUMCON:105:1,2009-03-06T01:00:00Z,29.1874,-90.6654,18.04,1111122 
LUMCON,ioos:station:LUMCON:105:1,2009-03-06T02:00:00Z,29.1874,-90.6654,17.98,1111122 
LUMCON,ioos:station:LUMCON:105:1,2009-03-06T03:00:00Z,29.1874,-90.6654,18.02,1111122 
LUMCON,ioos:station:LUMCON:105:1,2009-03-06T04:00:00Z,29.1874,-90.6654,18.03,1111122 
LUMCON,ioos:station:LUMCON:105:1,2009-03-06T05:00:00Z,29.1874,-90.6654,18.05,1111122 
LUMCON,ioos:station:LUMCON:105:1,2009-03-06T06:00:00Z,29.1874,-90.6654,18.07,1111122 
LUMCON,ioos:station:LUMCON:105:1,2009-03-06T07:00:00Z,29.1874,-90.6654,17.97,1111122 
LUMCON,ioos:station:LUMCON:105:1,2009-03-06T08:00:00Z,29.1874,-90.6654,17.81,1111122 
LUMCON,ioos:station:LUMCON:105:1,2009-03-06T09:00:00Z,29.1874,-90.6654,17.56,1111122 
LUMCON,ioos:station:LUMCON:105:1,2009-03-06T10:00:00Z,29.1874,-90.6654,17.27,1111122 
LUMCON,ioos:station:LUMCON:105:1,2009-03-06T11:00:00Z,29.1874,-90.6654,17.47,1111122 
LUMCON,ioos:station:LUMCON:105:1,2009-03-06T12:00:00Z,29.1874,-90.6654,17.48,1111122 
LUMCON,ioos:station:LUMCON:105:1,2009-03-06T13:00:00Z,29.1874,-90.6654,17.41,1111122 
LUMCON,ioos:station:LUMCON:105:1,2009-03-06T14:00:00Z,29.1874,-90.6654,17.95,1111122 
LUMCON,ioos:station:LUMCON:105:1,2009-03-06T15:00:00Z,29.1874,-90.6654,18.33,1111122 
LUMCON,ioos:station:LUMCON:105:1,2009-03-06T16:00:00Z,29.1874,-90.6654,18.28,1111122 
LUMCON,ioos:station:LUMCON:105:1,2009-03-06T17:00:00Z,29.1874,-90.6654,18.51,1111122 
LUMCON,ioos:station:LUMCON:105:1,2009-03-06T18:00:00Z,29.1874,-90.6654,19.15,1111122 
LUMCON,ioos:station:LUMCON:105:1,2009-03-06T19:00:00Z,29.1874,-90.6654,19.47,1111122 
LUMCON,ioos:station:LUMCON:105:1,2009-03-06T20:00:00Z,29.1874,-90.6654,19.68,1111122 
LUMCON,ioos:station:LUMCON:105:1,2009-03-06T21:00:00Z,29.1874,-90.6654,19.85,1111122 
LUMCON,ioos:station:LUMCON:105:1,2009-03-06T22:00:00Z,29.1874,-90.6654,19.91,1111122 
LUMCON,ioos:station:LUMCON:105:1,2009-03-06T23:00:00Z,29.1874,-90.6654,19.81,1111122 
LUMCON,ioos:station:LUMCON:105:1,2009-03-07T00:00:00Z,29.1874,-90.6654,18.4,1111122 
LUMCON,ioos:station:LUMCON:105:1,2009-03-07T01:00:00Z,29.1874,-90.6654,19.23,1111122 
LUMCON,ioos:station:LUMCON:105:1,2009-03-07T02:00:00Z,29.1874,-90.6654,19.23,1111122 
LUMCON,ioos:station:LUMCON:105:1,2009-03-07T03:00:00Z,29.1874,-90.6654,19.14,1111122 
LUMCON,ioos:station:LUMCON:105:1,2009-03-07T04:00:00Z,29.1874,-90.6654,19.21,1111122 
LUMCON,ioos:station:LUMCON:105:1,2009-03-07T05:00:00Z,29.1874,-90.6654,19.3,1111122 
LUMCON,ioos:station:LUMCON:105:1,2009-03-07T06:00:00Z,29.1874,-90.6654,19.25,1111122 
LUMCON,ioos:station:LUMCON:105:1,2009-03-07T07:00:00Z,29.1874,-90.6654,19.39,1111122 
LUMCON,ioos:station:LUMCON:105:1,2009-03-07T08:00:00Z,29.1874,-90.6654,19.32,1111122 
LUMCON,ioos:station:LUMCON:105:1,2009-03-07T09:00:00Z,29.1874,-90.6654,19.19,1111122 
LUMCON,ioos:station:LUMCON:105:1,2009-03-07T10:00:00Z,29.1874,-90.6654,19.06,1111122 
LUMCON,ioos:station:LUMCON:105:1,2009-03-07T11:00:00Z,29.1874,-90.6654,18.97,1111122 
LUMCON,ioos:station:LUMCON:105:1,2009-03-07T12:00:00Z,29.1874,-90.6654,18.89,1111122 
LUMCON,ioos:station:LUMCON:105:1,2009-03-07T13:00:00Z,29.1874,-90.6654,18.97,1111122 
LUMCON,ioos:station:LUMCON:105:1,2009-03-07T14:00:00Z,29.1874,-90.6654,19.21,1111122 
LUMCON,ioos:station:LUMCON:105:1,2009-03-07T15:00:00Z,29.1874,-90.6654,19.7,1111122 
LUMCON,ioos:station:LUMCON:105:1,2009-03-07T16:00:00Z,29.1874,-90.6654,19.91,1111122 
LUMCON,ioos:station:LUMCON:105:1,2009-03-07T17:00:00Z,29.1874,-90.6654,19.88,1111122 
LUMCON,ioos:station:LUMCON:105:1,2009-03-07T18:00:00Z,29.1874,-90.6654,20.02,1111122 
LUMCON,ioos:station:LUMCON:105:1,2009-03-07T19:00:00Z,29.1874,-90.6654,20.12,1111122 
LUMCON,ioos:station:LUMCON:105:1,2009-03-07T21:00:00Z,29.1874,-90.6654,20.46,1111122 
LUMCON,ioos:station:LUMCON:105:1,2009-03-07T22:00:00Z,29.1874,-90.6654,20.57,1111122 
LUMCON,ioos:station:LUMCON:105:1,2009-03-07T23:00:00Z,29.1874,-90.6654,20.43,1111122 
LUMCON,ioos:station:LUMCON:105:1,2009-03-08T00:00:00Z,29.1874,-90.6654,19.58,1111122 
LUMCON,ioos:station:LUMCON:105:1,2009-03-08T01:00:00Z,29.1874,-90.6654,19.93,1111122 
LUMCON,ioos:station:LUMCON:105:1,2009-03-08T02:00:00Z,29.1874,-90.6654,19.94,1111122 
LUMCON,ioos:station:LUMCON:105:1,2009-03-08T03:00:00Z,29.1874,-90.6654,19.94,1111122 
LUMCON,ioos:station:LUMCON:105:1,2009-03-08T04:00:00Z,29.1874,-90.6654,20.09,1111122 
LUMCON,ioos:station:LUMCON:105:1,2009-03-08T05:00:00Z,29.1874,-90.6654,20.07,1111122 
LUMCON,ioos:station:LUMCON:105:1,2009-03-08T06:00:00Z,29.1874,-90.6654,19.88,1111122 
LUMCON,ioos:station:LUMCON:105:1,2009-03-08T07:00:00Z,29.1874,-90.6654,19.94,1111122 
LUMCON,ioos:station:LUMCON:105:1,2009-03-08T09:00:00Z,29.1874,-90.6654,20.2,1111122 
LUMCON,ioos:station:LUMCON:105:1,2009-03-08T10:00:00Z,29.1874,-90.6654,20.1,1111122 
LUMCON,ioos:station:LUMCON:105:1,2009-03-08T11:00:00Z,29.1874,-90.6654,20.08,1111122 
LUMCON,ioos:station:LUMCON:105:1,2009-03-08T12:00:00Z,29.1874,-90.6654,20.14,1111122 
LUMCON,ioos:station:LUMCON:105:1,2009-03-08T13:00:00Z,29.1874,-90.6654,20.03,1111122 
LUMCON,ioos:station:LUMCON:105:1,2009-03-08T14:00:00Z,29.1874,-90.6654,20.31,1111122 
LUMCON,ioos:station:LUMCON:105:1,2009-03-08T15:00:00Z,29.1874,-90.6654,20.65,1111122 
LUMCON,ioos:station:LUMCON:105:1,2009-03-08T16:00:00Z,29.1874,-90.6654,21.04,1111122 
LUMCON,ioos:station:LUMCON:105:1,2009-03-08T17:00:00Z,29.1874,-90.6654,21.32,1111122 
LUMCON,ioos:station:LUMCON:105:1,2009-03-08T18:00:00Z,29.1874,-90.6654,22.07,1111122 
LUMCON,ioos:station:LUMCON:105:1,2009-03-08T19:00:00Z,29.1874,-90.6654,22.54,1111122 
LUMCON,ioos:station:LUMCON:105:1,2009-03-08T20:00:00Z,29.1874,-90.6654,22.69,1111122 
LUMCON,ioos:station:LUMCON:105:1,2009-03-08T21:00:00Z,29.1874,-90.6654,22.57,1111122 
LUMCON,ioos:station:LUMCON:105:1,2009-03-08T22:00:00Z,29.1874,-90.6654,22.41,1111122 
LUMCON,ioos:station:LUMCON:105:1,2009-03-08T23:00:00Z,29.1874,-90.6654,22.37,1111122 
LUMCON,ioos:station:LUMCON:105:1,2009-03-09T00:00:00Z,29.1874,-90.6654,20.85,1111122 
LUMCON,ioos:station:LUMCON:105:1,2009-03-09T01:00:00Z,29.1874,-90.6654,21.73,1111122 
LUMCON,ioos:station:LUMCON:105:1,2009-03-09T02:00:00Z,29.1874,-90.6654,21.4,1111122 
LUMCON,ioos:station:LUMCON:105:1,2009-03-09T03:00:00Z,29.1874,-90.6654,21.22,1111122 
LUMCON,ioos:station:LUMCON:105:1,2009-03-09T04:00:00Z,29.1874,-90.6654,21.09,1111122 
LUMCON,ioos:station:LUMCON:105:1,2009-03-09T05:00:00Z,29.1874,-90.6654,20.94,1111122 
LUMCON,ioos:station:LUMCON:105:1,2009-03-09T06:00:00Z,29.1874,-90.6654,20.83,1111122 
LUMCON,ioos:station:LUMCON:105:1,2009-03-09T07:00:00Z,29.1874,-90.6654,20.81,1111122 
LUMCON,ioos:station:LUMCON:105:1,2009-03-09T08:00:00Z,29.1874,-90.6654,20.84,1111122 
LUMCON,ioos:station:LUMCON:105:1,2009-03-09T09:00:00Z,29.1874,-90.6654,20.76,1111122 
LUMCON,ioos:station:LUMCON:105:1,2009-03-09T10:00:00Z,29.1874,-90.6654,20.72,1111122 
LUMCON,ioos:station:LUMCON:105:1,2009-03-09T11:00:00Z,29.1874,-90.6654,20.6,1111122 
LUMCON,ioos:station:LUMCON:105:1,2009-03-09T12:00:00Z,29.1874,-90.6654,20.66,1111122 
LUMCON,ioos:station:LUMCON:105:1,2009-03-09T13:00:00Z,29.1874,-90.6654,20.73,1111122 
LUMCON,ioos:station:LUMCON:105:1,2009-03-09T14:00:00Z,29.1874,-90.6654,21.04,1111122 
LUMCON,ioos:station:LUMCON:105:1,2009-03-09T15:00:00Z,29.1874,-90.6654,21.4,1111122 
LUMCON,ioos:station:LUMCON:105:1,2009-03-09T16:00:00Z,29.1874,-90.6654,21.43,1111122 
LUMCON,ioos:station:LUMCON:105:1,2009-03-09T18:00:00Z,29.1874,-90.6654,21.81,1111122 
LUMCON,ioos:station:LUMCON:105:1,2009-03-09T19:00:00Z,29.1874,-90.6654,22.1,1111122 
LUMCON,ioos:station:LUMCON:105:1,2009-03-09T20:00:00Z,29.1874,-90.6654,22.08,1111122 
LUMCON,ioos:station:LUMCON:105:1,2009-03-09T21:00:00Z,29.1874,-90.6654,22.12,1111122 
LUMCON,ioos:station:LUMCON:105:1,2009-03-09T22:00:00Z,29.1874,-90.6654,22.18,1111122 
LUMCON,ioos:station:LUMCON:105:1,2009-03-09T23:00:00Z,29.1874,-90.6654,22.17,1111122 
LUMCON,ioos:station:LUMCON:105:1,2009-03-10T00:00:00Z,29.1874,-90.6654,21.34,1111122 
LUMCON,ioos:station:LUMCON:105:1,2009-03-10T01:00:00Z,29.1874,-90.6654,21.55,1111122 
LUMCON,ioos:station:LUMCON:105:1,2009-03-10T02:00:00Z,29.1874,-90.6654,21.35,1111122 
LUMCON,ioos:station:LUMCON:105:1,2009-03-10T03:00:00Z,29.1874,-90.6654,21.23,1111122 
LUMCON,ioos:station:LUMCON:105:1,2009-03-10T04:00:00Z,29.1874,-90.6654,21.2,1111122 
LUMCON,ioos:station:LUMCON:105:1,2009-03-10T05:00:00Z,29.1874,-90.6654,21.09,1111122 
LUMCON,ioos:station:LUMCON:105:1,2009-03-10T06:00:00Z,29.1874,-90.6654,21.04,1111122 
LUMCON,ioos:station:LUMCON:105:1,2009-03-10T07:00:00Z,29.1874,-90.6654,21.07,1111122 
LUMCON,ioos:station:LUMCON:105:1,2009-03-10T08:00:00Z,29.1874,-90.6654,21.08,1111122 
LUMCON,ioos:station:LUMCON:105:1,2009-03-10T09:00:00Z,29.1874,-90.6654,21.09,1111122 
LUMCON,ioos:station:LUMCON:105:1,2009-03-10T10:00:00Z,29.1874,-90.6654,21.06,1111122 
LUMCON,ioos:station:LUMCON:105:1,2009-03-10T11:00:00Z,29.1874,-90.6654,21.14,1111122 
LUMCON,ioos:station:LUMCON:105:1,2009-03-10T12:00:00Z,29.1874,-90.6654,21.05,1111122 
LUMCON,ioos:station:LUMCON:105:1,2009-03-10T13:00:00Z,29.1874,-90.6654,21.08,1111122 
LUMCON,ioos:station:LUMCON:105:1,2009-03-10T14:00:00Z,29.1874,-90.6654,21.43,1111122 
LUMCON,ioos:station:LUMCON:105:1,2009-03-10T15:00:00Z,29.1874,-90.6654,21.59,1111122 
LUMCON,ioos:station:LUMCON:105:1,2009-03-10T16:00:00Z,29.1874,-90.6654,21.73,1111122 
LUMCON,ioos:station:LUMCON:105:1,2009-03-10T17:00:00Z,29.1874,-90.6654,21.9,1111122 
LUMCON,ioos:station:LUMCON:105:1,2009-03-10T18:00:00Z,29.1874,-90.6654,22.09,1111122 
LUMCON,ioos:station:LUMCON:105:1,2009-03-10T19:00:00Z,29.1874,-90.6654,22.17,1111122 
LUMCON,ioos:station:LUMCON:105:1,2009-03-10T20:00:00Z,29.1874,-90.6654,22.37,1111122 
LUMCON,ioos:station:LUMCON:105:1,2009-03-10T21:00:00Z,29.1874,-90.6654,22.43,1111122 
LUMCON,ioos:station:LUMCON:105:1,2009-03-10T22:00:00Z,29.1874,-90.6654,22.41,1111122 
LUMCON,ioos:station:LUMCON:105:1,2009-03-10T23:00:00Z,29.1874,-90.6654,22.39,1111122 
LUMCON,ioos:station:LUMCON:105:1,2009-03-11T00:00:00Z,29.1874,-90.6654,21.58,1111122 
LUMCON,ioos:station:LUMCON:105:1,2009-03-11T01:00:00Z,29.1874,-90.6654,22.2,1111122 
LUMCON,ioos:station:LUMCON:105:1,2009-03-11T02:00:00Z,29.1874,-90.6654,22.11,1111122 
LUMCON,ioos:station:LUMCON:105:1,2009-03-11T03:00:00Z,29.1874,-90.6654,21.97,1111122 
LUMCON,ioos:station:LUMCON:105:1,2009-03-11T04:00:00Z,29.1874,-90.6654,21.82,1111122 
LUMCON,ioos:station:LUMCON:105:1,2009-03-11T05:00:00Z,29.1874,-90.6654,21.6,1111122 
LUMCON,ioos:station:LUMCON:105:1,2009-03-11T06:00:00Z,29.1874,-90.6654,21.53,1111122 
LUMCON,ioos:station:LUMCON:105:1,2009-03-11T07:00:00Z,29.1874,-90.6654,21.44,1111122 
LUMCON,ioos:station:LUMCON:105:1,2009-03-11T08:00:00Z,29.1874,-90.6654,21.28,1111122 
LUMCON,ioos:station:LUMCON:105:1,2009-03-11T09:00:00Z,29.1874,-90.6654,21.31,1111122 
LUMCON,ioos:station:LUMCON:105:1,2009-03-11T10:00:00Z,29.1874,-90.6654,21.31,1111122 
LUMCON,ioos:station:LUMCON:105:1,2009-03-11T11:00:00Z,29.1874,-90.6654,21.22,1111122 
LUMCON,ioos:station:LUMCON:105:1,2009-03-11T12:00:00Z,29.1874,-90.6654,21.35,1111122 
LUMCON,ioos:station:LUMCON:105:1,2009-03-11T13:00:00Z,29.1874,-90.6654,21.68,1111122 
LUMCON,ioos:station:LUMCON:105:1,2009-03-11T14:00:00Z,29.1874,-90.6654,21.82,1111122 
LUMCON,ioos:station:LUMCON:105:1,2009-03-11T15:00:00Z,29.1874,-90.6654,22.08,1111122 
LUMCON,ioos:station:LUMCON:105:1,2009-03-11T16:00:00Z,29.1874,-90.6654,22.17,1111122 
LUMCON,ioos:station:LUMCON:105:1,2009-03-11T17:00:00Z,29.1874,-90.6654,22.35,1111122 
LUMCON,ioos:station:LUMCON:105:1,2009-03-11T18:00:00Z,29.1874,-90.6654,22.23,1111122 
LUMCON,ioos:station:LUMCON:105:1,2009-03-11T19:00:00Z,29.1874,-90.6654,22.61,1111122 
LUMCON,ioos:station:LUMCON:105:1,2009-03-11T20:00:00Z,29.1874,-90.6654,22.54,1111122 
LUMCON,ioos:station:LUMCON:105:1,2009-03-11T21:00:00Z,29.1874,-90.6654,22.58,1111122 
LUMCON,ioos:station:LUMCON:105:1,2009-03-11T22:00:00Z,29.1874,-90.6654,22.63,1111122 
LUMCON,ioos:station:LUMCON:105:1,2009-03-11T23:00:00Z,29.1874,-90.6654,22.58,1111122 
LUMCON,ioos:station:LUMCON:105:1,2009-03-12T00:00:00Z,29.1874,-90.6654,21.96,1111122 
LUMCON,ioos:station:LUMCON:105:1,2009-03-12T01:00:00Z,29.1874,-90.6654,22.35,1111122 
LUMCON,ioos:station:LUMCON:105:1,2009-03-12T02:00:00Z,29.1874,-90.6654,22.04,1111122 
LUMCON,ioos:station:LUMCON:105:1,2009-03-12T03:00:00Z,29.1874,-90.6654,21.95,1111122 
LUMCON,ioos:station:LUMCON:105:1,2009-03-12T04:00:00Z,29.1874,-90.6654,21.77,1111122 
LUMCON,ioos:station:LUMCON:105:1,2009-03-12T05:00:00Z,29.1874,-90.6654,21.66,1111122 
LUMCON,ioos:station:LUMCON:105:1,2009-03-12T06:00:00Z,29.1874,-90.6654,21.65,1111122 
LUMCON,ioos:station:LUMCON:105:1,2009-03-12T07:00:00Z,29.1874,-90.6654,21.5,1111122 
LUMCON,ioos:station:LUMCON:105:1,2009-03-12T08:00:00Z,29.1874,-90.6654,21.55,1111122 
LUMCON,ioos:station:LUMCON:105:1,2009-03-12T09:00:00Z,29.1874,-90.6654,21.32,1111122 
LUMCON,ioos:station:LUMCON:105:1,2009-03-12T10:00:00Z,29.1874,-90.6654,21.11,1111122 
LUMCON,ioos:station:LUMCON:105:1,2009-03-12T11:00:00Z,29.1874,-90.6654,21.11,1111122 
LUMCON,ioos:station:LUMCON:105:1,2009-03-12T12:00:00Z,29.1874,-90.6654,21.24,1111122 
LUMCON,ioos:station:LUMCON:105:1,2009-03-12T13:00:00Z,29.1874,-90.6654,20.75,1111122 
LUMCON,ioos:station:LUMCON:105:1,2009-03-12T14:00:00Z,29.1874,-90.6654,21.02,1111122 
LUMCON,ioos:station:LUMCON:105:1,2009-03-12T15:00:00Z,29.1874,-90.6654,21.22,1111122 
LUMCON,ioos:station:LUMCON:105:1,2009-03-12T16:00:00Z,29.1874,-90.6654,21.36,1111122 
LUMCON,ioos:station:LUMCON:105:1,2009-03-12T17:00:00Z,29.1874,-90.6654,21.45,1111122 
LUMCON,ioos:station:LUMCON:105:1,2009-03-12T18:00:00Z,29.1874,-90.6654,21.53,1111122 
LUMCON,ioos:station:LUMCON:105:1,2009-03-12T19:00:00Z,29.1874,-90.6654,21.56,1111122 
LUMCON,ioos:station:LUMCON:105:1,2009-03-12T20:00:00Z,29.1874,-90.6654,21.77,1111122 
LUMCON,ioos:station:LUMCON:105:1,2009-03-13T20:00:00Z,29.1874,-90.6654,21.87,1111122 
LUMCON,ioos:station:LUMCON:105:1,2009-03-13T22:00:00Z,29.1874,-90.6654,22.01,1111122 
LUMCON,ioos:station:LUMCON:105:1,2009-03-13T23:00:00Z,29.1874,-90.6654,21.92,1111122 
LUMCON,ioos:station:LUMCON:105:1,2009-03-14T00:00:00Z,29.1874,-90.6654,21.62,1111122 
LUMCON,ioos:station:LUMCON:105:1,2009-03-14T01:00:00Z,29.1874,-90.6654,21.96,1111122 
LUMCON,ioos:station:LUMCON:105:1,2009-03-14T02:00:00Z,29.1874,-90.6654,22.0,1111122 
LUMCON,ioos:station:LUMCON:105:1,2009-03-14T03:00:00Z,29.1874,-90.6654,22.01,1111122 
LUMCON,ioos:station:LUMCON:105:1,2009-03-14T04:00:00Z,29.1874,-90.6654,21.92,1111122 
LUMCON,ioos:station:LUMCON:105:1,2009-03-14T05:00:00Z,29.1874,-90.6654,21.84,1111122 
LUMCON,ioos:station:LUMCON:105:1,2009-03-14T06:00:00Z,29.1874,-90.6654,21.84,1111122 
LUMCON,ioos:station:LUMCON:105:1,2009-03-14T07:00:00Z,29.1874,-90.6654,21.91,1111122 
LUMCON,ioos:station:LUMCON:105:1,2009-03-14T08:00:00Z,29.1874,-90.6654,22.11,1111122 
LUMCON,ioos:station:LUMCON:105:1,2009-03-14T09:00:00Z,29.1874,-90.6654,22.25,1111122 
LUMCON,ioos:station:LUMCON:105:1,2009-03-14T10:00:00Z,29.1874,-90.6654,22.28,1111122 
LUMCON,ioos:station:LUMCON:105:1,2009-03-14T11:00:00Z,29.1874,-90.6654,22.34,1111122 
LUMCON,ioos:station:LUMCON:105:1,2009-03-14T12:00:00Z,29.1874,-90.6654,22.16,1111122 
LUMCON,ioos:station:LUMCON:105:1,2009-03-14T13:00:00Z,29.1874,-90.6654,22.07,1111122 
LUMCON,ioos:station:LUMCON:105:1,2009-03-14T14:00:00Z,29.1874,-90.6654,22.19,1111122 
LUMCON,ioos:station:LUMCON:105:1,2009-03-14T15:00:00Z,29.1874,-90.6654,22.17,1111122 
LUMCON,ioos:station:LUMCON:105:1,2009-03-14T16:00:00Z,29.1874,-90.6654,21.6,1111122 
LUMCON,ioos:station:LUMCON:105:1,2009-03-14T17:00:00Z,29.1874,-90.6654,20.44,1111122 
LUMCON,ioos:station:LUMCON:105:1,2009-03-14T18:00:00Z,29.1874,-90.6654,21.07,1111122 
LUMCON,ioos:station:LUMCON:105:1,2009-03-14T19:00:00Z,29.1874,-90.6654,20.86,1111122 
LUMCON,ioos:station:LUMCON:105:1,2009-03-14T20:00:00Z,29.1874,-90.6654,21.01,1111122 
LUMCON,ioos:station:LUMCON:105:1,2009-03-14T21:00:00Z,29.1874,-90.6654,20.46,1111122 
LUMCON,ioos:station:LUMCON:105:1,2009-03-14T22:00:00Z,29.1874,-90.6654,20.06,1111122 
LUMCON,ioos:station:LUMCON:105:1,2009-03-14T23:00:00Z,29.1874,-90.6654,20.08,1111122 
LUMCON,ioos:station:LUMCON:105:1,2009-03-15T00:00:00Z,29.1874,-90.6654,21.51,1111122 
LUMCON,ioos:station:LUMCON:105:1,2009-03-15T01:00:00Z,29.1874,-90.6654,19.34,1111122 
LUMCON,ioos:station:LUMCON:105:1,2009-03-15T02:00:00Z,29.1874,-90.6654,19.39,1111122 
LUMCON,ioos:station:LUMCON:105:1,2009-03-15T03:00:00Z,29.1874,-90.6654,19.35,1111122 
LUMCON,ioos:station:LUMCON:105:1,2009-03-15T04:00:00Z,29.1874,-90.6654,18.76,1111122 
LUMCON,ioos:station:LUMCON:105:1,2009-03-15T05:00:00Z,29.1874,-90.6654,18.32,1111122 
LUMCON,ioos:station:LUMCON:105:1,2009-03-15T06:00:00Z,29.1874,-90.6654,17.48,1111122 
LUMCON,ioos:station:LUMCON:105:1,2009-03-15T07:00:00Z,29.1874,-90.6654,17.09,1111122 
LUMCON,ioos:station:LUMCON:105:1,2009-03-15T08:00:00Z,29.1874,-90.6654,16.89,1111122 
LUMCON,ioos:station:LUMCON:105:1,2009-03-15T09:00:00Z,29.1874,-90.6654,16.87,1111122 
LUMCON,ioos:station:LUMCON:105:1,2009-03-15T10:00:00Z,29.1874,-90.6654,16.93,1111122 
LUMCON,ioos:station:LUMCON:105:1,2009-03-15T11:00:00Z,29.1874,-90.6654,17.13,1111122 
LUMCON,ioos:station:LUMCON:105:1,2009-03-15T12:00:00Z,29.1874,-90.6654,17.26,1111122 
LUMCON,ioos:station:LUMCON:105:1,2009-03-15T13:00:00Z,29.1874,-90.6654,17.28,1111122 